TimeCDT,TemperatureF,Dew PointF,Humidity,Sea Level PressureIn,VisibilityMPH,Wind Direction,Wind SpeedMPH,Gust SpeedMPH,PrecipitationIn,Events,Conditions,WindDirDegrees,DateUTC
12:54 AM,79.0,73.0,82,30.25,10.0,South,5.8,-,N/A,,Clear,180,2013-07-16 05:54:00
1:54 AM,77.0,73.0,88,30.23,10.0,South,5.8,-,N/A,,Clear,170,2013-07-16 06:54:00
2:54 AM,77.0,72.0,84,30.23,10.0,SSE,4.6,-,N/A,,Clear,150,2013-07-16 07:54:00
3:54 AM,77.0,72.0,84,30.24,10.0,SSE,5.8,-,N/A,,Clear,160,2013-07-16 08:54:00
4:54 AM,73.9,72.0,93,30.25,8.0,Calm,Calm,-,N/A,,Clear,0,2013-07-16 09:54:00
5:54 AM,73.9,71.1,91,30.27,6.0,Calm,Calm,-,N/A,,Clear,0,2013-07-16 10:54:00
6:54 AM,75.9,72.0,87,30.29,9.0,South,4.6,-,N/A,,Clear,170,2013-07-16 11:54:00
7:54 AM,79.0,73.0,82,30.30,10.0,South,8.1,-,N/A,,Clear,190,2013-07-16 12:54:00
8:54 AM,82.0,73.0,74,30.31,10.0,South,9.2,-,N/A,,Clear,190,2013-07-16 13:54:00
9:54 AM,84.9,73.0,67,30.30,10.0,SW,8.1,-,N/A,,Scattered Clouds,230,2013-07-16 14:54:00
10:54 AM,82.9,72.0,69,30.30,10.0,SW,5.8,-,N/A,,Mostly Cloudy,220,2013-07-16 15:54:00
11:54 AM,86.0,72.0,63,30.30,-9999.0,North,-9999.0,-,N/A,,Clear,0,2013-07-16 16:54:00
12:54 PM,91.0,71.1,52,30.29,10.0,SSW,5.8,-,N/A,,Scattered Clouds,200,2013-07-16 17:54:00
1:54 PM,90.0,70.0,52,30.28,10.0,SSW,6.9,-,N/A,,Partly Cloudy,210,2013-07-16 18:54:00
2:54 PM,90.0,70.0,52,30.27,10.0,South,8.1,-,N/A,,Scattered Clouds,170,2013-07-16 19:54:00
3:54 PM,91.9,69.1,47,30.25,10.0,SW,6.9,-,N/A,,Partly Cloudy,220,2013-07-16 20:54:00
4:54 PM,91.9,69.1,47,30.25,10.0,SSW,8.1,-,N/A,,Scattered Clouds,210,2013-07-16 21:54:00
5:54 PM,90.0,70.0,52,30.25,10.0,South,9.2,-,N/A,,Scattered Clouds,170,2013-07-16 22:54:00
6:54 PM,88.0,70.0,55,30.25,10.0,SSW,8.1,-,N/A,,Clear,200,2013-07-16 23:54:00
7:54 PM,86.0,70.0,59,30.25,10.0,South,6.9,-,N/A,,Clear,190,2013-07-17 00:54:00
8:54 PM,82.9,70.0,65,30.25,10.0,South,3.5,-,N/A,,Clear,170,2013-07-17 01:54:00
9:54 PM,81.0,70.0,69,30.28,10.0,Calm,Calm,-,N/A,,Clear,0,2013-07-17 02:54:00
10:54 PM,81.0,70.0,69,30.29,10.0,Calm,Calm,-,N/A,,Clear,0,2013-07-17 03:54:00
11:54 PM,80.1,70.0,71,30.28,10.0,SSE,3.5,-,N/A,,Clear,160,2013-07-17 04:54:00